#timestamp,LO_Frequency,Hit 
1500778815.3,286047104.3,N
1500778835.2,286047102.9,N
1500778855.9,286047102.3,N
1500778875.7,286047105.2,N
1500778895.6,286047104.7,N
1500778915.4,286047104.1,N
1500778935.2,286047104.5,N
1500778955.1,286047103.7,N
1500778956.0,286047103.7,N
1500778975.8,286047105.1,N
1500778995.6,286047102.4,N
1500779015.5,286047104.7,N
1500779035.3,286047104.4,N
1500779055.1,286047103.9,N
1500779075.9,286047103.9,N
1500779095.7,286047106.1,N
1500779115.5,286047106.5,N
1500779135.3,286047106.8,N
1500779155.2,286047106.3,N
1500779175.0,286047106.2,N
1500779175.9,286047106.2,N
1500779195.7,286047106.3,N
1500779215.6,286047106.7,N
1500779235.4,286047106.8,N
1500779255.2,286047106.6,N
1500779275.1,286047105.5,N
1500779276.0,286047105.5,N
1500779295.8,286047104.2,N
1500779315.6,286047105.6,N
1500779335.5,286047107.9,N
1500779355.3,286047106.1,N
1500779375.1,286047108.2,N
1500779395.9,286047108.2,N
1500779415.7,286047105.4,N
1500779435.5,286047105.6,N
1500779455.4,286047105.6,N
1500779475.2,286047105.8,N
1500779495.0,286047107.5,N
1500779495.9,286047107.5,N
1500779515.8,286047109.6,N
1500779535.6,286047107.7,N
1500779555.4,286047110.0,N
1500779575.3,286047107.1,N
1500779595.1,286047105.3,N
1500779596.0,286047105.3,N
1500779615.8,286047107.8,N
1500779635.7,286047107.5,N
1500779655.5,286047107.7,N
1500779675.3,286047107.1,N
1500779695.1,286047108.0,N
1500779715.9,286047108.4,N
1500779735.7,286047107.6,N
1500779755.5,286047107.9,N
1500779775.4,286047107.6,N
1500779795.2,286047109.9,N
1500779815.0,286047105.7,N
1500779815.9,286047105.7,N
1500779835.8,286047105.4,N
1500779855.6,286047107.3,N
1500779875.4,286047111.6,N
1500779895.3,286047109.6,N
1500779915.5,286047107.4,N
1500779935.3,286047109.2,N
1500779955.2,286047107.8,N
1500779975.0,286047107.9,N
1500779975.9,286047107.9,N
1500779995.7,286047107.8,N
1500780015.6,286047108.9,N
1500780035.4,286047111.6,N
1500780055.2,286047108.2,N
1500780075.1,286047107.2,N
1500780076.0,286047107.2,N
1500780095.8,286047110.0,N
1500780115.6,286047109.1,N
1500780135.5,286047109.4,N
1500780155.3,286047110.0,N
1500780175.1,286047107.3,N
1500780195.9,286047111.6,N
1500780215.7,286047110.6,N
1500780235.5,286047111.6,N
1500780255.4,286047111.1,N
1500780275.2,286047110.4,N
1500780295.0,286047110.5,N
1500780295.9,286047110.5,N
1500780315.8,286047110.5,N
1500780335.6,286047110.9,N
1500780355.4,286047108.6,N
1500780375.3,286047108.5,N
1500780395.1,286047111.5,N
1500780396.0,286047111.5,N
1500780415.8,286047108.6,N
1500780435.7,286047110.7,N
1500780455.5,286047112.8,N
1500780475.3,286047110.4,N
1500780495.1,286047112.8,N
1500780515.9,286047111.7,N
1500780535.7,286047110.3,N
1500780555.5,286047111.6,N
1500780575.4,286047113.0,N
1500780595.2,286047110.1,N
1500780615.0,286047110.6,N
1500780615.9,286047110.6,N
1500780635.8,286047112.8,N
1500780655.6,286047110.4,N
1500780675.4,286047110.5,N
1500780695.3,286047113.1,N
1500780715.1,286047111.7,N
1500780716.0,286047111.7,N
1500780735.8,286047111.9,N
1500780755.7,286047110.1,N
1500780775.5,286047110.2,N
1500780795.3,286047114.2,N
1500780815.2,286047113.0,N
1500780835.9,286047114.4,N
1500780855.7,286047112.1,N
1500780875.6,286047113.9,N
1500780895.4,286047113.7,N
1500780915.2,286047114.2,N
1500780935.0,286047114.3,N
1500780936.0,286047114.3,N
1500780955.8,286047114.5,N
1500780975.6,286047112.5,N
1500780995.4,286047112.0,N
1500781015.3,286047110.9,N
1500781035.1,286047110.3,N
1500781055.8,286047110.6,N
1500781075.7,286047113.1,N
1500781095.5,286047111.9,N
1500781115.3,286047112.3,N
1500781135.2,286047112.6,N
1500781155.0,286047113.1,N
1500781155.9,286047113.1,N
1500781175.7,286047113.1,N
1500781195.6,286047112.2,N
1500781215.4,286047114.4,N
1500781235.2,286047114.1,N
1500781255.1,286047113.6,N
1500781256.0,286047113.6,N
1500781275.8,286047112.4,N
1500781295.6,286047111.8,N
1500781315.5,286047114.7,N
1500781335.3,286047116.2,N
1500781355.1,286047115.5,N
1500781375.9,286047117.2,N
1500781395.7,286047116.1,N
1500781415.5,286047115.8,N
1500781435.4,286047115.5,N
1500781455.2,286047117.9,N
1500781475.0,286047115.1,N
1500781475.9,286047115.1,N
1500781495.8,286047113.4,N
1500781515.6,286047116.3,N
1500781535.4,286047116.4,N
1500781555.3,286047116.0,N
1500781575.1,286047113.4,N
1500781576.0,286047113.4,N
1500781595.8,286047113.6,N
1500781615.7,286047116.1,N
1500781635.5,286047115.5,N
1500781655.3,286047114.9,N
1500781675.2,286047115.3,N
1500781695.9,286047115.7,N
1500781715.7,286047113.6,N
1500781735.5,286047113.8,N
1500781755.4,286047113.6,N
1500781775.2,286047116.1,N
1500781795.0,286047116.0,N
1500781795.9,286047116.0,N
1500781815.8,286047115.9,N
1500781835.6,286047115.0,N
1500781855.4,286047118.0,N
1500781875.3,286047117.8,N
1500781895.1,286047117.6,N
1500781915.8,286047117.6,N
1500781935.7,286047118.0,N
1500781955.5,286047115.0,N
1500781975.3,286047118.0,N
1500781995.2,286047117.1,N
1500782015.9,286047119.1,N
1500782035.7,286047119.5,N
1500782055.6,286047117.1,N
1500782075.4,286047117.2,N
1500782095.2,286047117.2,N
1500782115.1,286047117.3,N
1500782116.0,286047117.3,N
1500782135.8,286047118.2,N
1500782155.6,286047118.7,N
1500782175.5,286047119.6,N
1500782195.3,286047117.0,N
1500782215.1,286047118.9,N
1500782235.9,286047118.7,N
1500782255.7,286047118.9,N
1500782275.5,286047119.3,N
1500782295.3,286047116.5,N
1500782315.2,286047117.1,N
1500782335.0,286047117.4,N
1500782335.9,286047117.4,N
1500782355.7,286047115.0,N
1500782375.6,286047119.3,N
1500782395.4,286047118.2,N
